Time,TemperatureF,DewpointF,PressureIn,WindDirection,WindDirectionDegrees,WindSpeedMPH,WindSpeedGustMPH,Humidity,HourlyPrecipIn,Conditions,Clouds,dailyrainin,SolarRadiationWatts/m^2,SoftwareType,DateUTC
2013-08-16 00:01:00,57.5,53.7,30.10,WNW,288,0.0,0.0,87,0.00,,SCT,0.00,0.00,VWS V14.01,2013-08-16 05:01:00,
2013-08-16 00:06:00,57.5,53.7,30.10,WNW,288,0.0,0.0,87,0.00,,SCT,0.00,0.00,VWS V14.01,2013-08-16 05:06:00,
2013-08-16 00:11:00,57.5,54.0,30.10,WNW,288,0.0,0.0,88,0.00,,SCT,0.00,0.00,VWS V14.01,2013-08-16 05:11:00,
2013-08-16 00:16:00,57.5,54.0,30.10,WNW,288,0.0,0.0,88,0.00,,SCT,0.00,0.00,VWS V14.01,2013-08-16 05:16:00,
2013-08-16 00:21:00,57.5,54.3,30.10,WNW,288,0.0,0.0,89,0.00,,SCT,0.00,0.00,VWS V14.01,2013-08-16 05:21:00,
2013-08-16 00:26:00,57.6,54.4,30.10,WNW,288,0.0,0.0,89,0.00,,SCT,0.00,0.00,VWS V14.01,2013-08-16 05:26:00,
2013-08-16 00:31:00,57.5,54.3,30.10,WNW,288,0.0,0.0,89,0.00,,SCT,0.00,0.00,VWS V14.01,2013-08-16 05:31:00,
2013-08-16 00:36:00,57.5,54.3,30.10,WNW,288,0.0,0.0,89,0.00,,SCT,0.00,0.00,VWS V14.01,2013-08-16 05:36:00,
2013-08-16 00:41:00,57.4,54.2,30.10,WNW,288,0.0,0.0,89,0.00,,SCT,0.00,0.00,VWS V14.01,2013-08-16 05:41:00,
2013-08-16 00:46:00,57.2,54.0,30.11,WNW,288,0.0,0.0,89,0.00,,SCT,0.00,0.00,VWS V14.01,2013-08-16 05:46:00,
2013-08-16 00:51:00,57.1,53.9,30.10,WNW,288,0.0,0.0,89,0.00,,SCT,0.00,0.00,VWS V14.01,2013-08-16 05:51:00,
2013-08-16 00:56:00,57.0,53.8,30.11,WNW,288,0.0,0.0,89,0.00,,SCT,0.00,0.00,VWS V14.01,2013-08-16 05:56:00,
2013-08-16 01:01:00,56.8,53.3,30.11,WNW,288,0.0,0.0,88,0.00,,SCT,0.00,0.00,VWS V14.01,2013-08-16 06:01:00,
2013-08-16 01:06:00,56.6,53.1,30.11,WNW,288,0.0,0.0,88,0.00,,SCT,0.00,0.00,VWS V14.01,2013-08-16 06:06:00,
2013-08-16 01:11:00,56.4,52.9,30.11,WNW,288,0.0,0.0,88,0.00,,SCT,0.00,0.00,VWS V14.01,2013-08-16 06:11:00,
2013-08-16 01:16:00,56.2,52.7,30.11,WNW,288,0.0,0.0,88,0.00,,SCT,0.00,0.00,VWS V14.01,2013-08-16 06:16:00,
2013-08-16 01:21:00,56.1,52.6,30.11,WNW,288,0.0,0.0,88,0.00,,SCT,0.00,0.00,VWS V14.01,2013-08-16 06:21:00,
2013-08-16 01:26:00,55.9,52.7,30.11,WNW,288,0.0,0.0,89,0.00,,SCT,0.00,0.00,VWS V14.01,2013-08-16 06:26:00,
2013-08-16 01:31:00,55.8,52.6,30.11,WNW,288,0.0,0.0,89,0.00,,SCT,0.00,0.00,VWS V14.01,2013-08-16 06:31:00,
2013-08-16 01:37:00,55.7,52.5,30.11,WNW,288,0.0,0.0,89,0.00,,SCT,0.00,0.00,VWS V14.01,2013-08-16 06:37:00,
2013-08-16 01:42:00,55.5,52.3,30.11,WNW,288,0.0,0.0,89,0.00,,SCT,0.00,0.00,VWS V14.01,2013-08-16 06:42:00,
2013-08-16 01:47:00,55.5,52.3,30.11,WNW,288,0.0,0.0,89,0.00,,SCT,0.00,0.00,VWS V14.01,2013-08-16 06:47:00,
2013-08-16 01:52:00,55.4,52.2,30.11,WNW,288,0.0,0.0,89,0.00,,SCT,0.00,0.00,VWS V14.01,2013-08-16 06:52:00,
2013-08-16 01:57:00,55.3,52.1,30.11,WNW,288,0.0,0.0,89,0.00,,SCT,0.00,0.00,VWS V14.01,2013-08-16 06:57:00,
2013-08-16 02:02:00,55.2,52.0,30.11,WNW,288,0.0,0.0,89,0.00,,SCT,0.00,0.00,VWS V14.01,2013-08-16 07:02:00,
2013-08-16 02:07:00,55.1,51.9,30.11,WNW,288,0.0,0.0,89,0.00,,SCT,0.00,0.00,VWS V14.01,2013-08-16 07:07:00,
2013-08-16 02:12:00,55.0,52.1,30.11,WNW,288,0.0,0.0,90,0.00,,SCT,0.00,0.00,VWS V14.01,2013-08-16 07:12:00,
2013-08-16 02:17:00,54.9,52.0,30.10,WNW,288,0.0,0.0,90,0.00,,SCT,0.00,0.00,VWS V14.01,2013-08-16 07:17:00,
2013-08-16 02:22:00,54.8,51.6,30.10,WNW,288,0.0,0.0,89,0.00,,SCT,0.00,0.00,VWS V14.01,2013-08-16 07:22:00,
2013-08-16 02:27:00,54.6,51.7,30.11,WNW,288,0.0,0.0,90,0.00,,SCT,0.00,0.00,VWS V14.01,2013-08-16 07:27:00,
2013-08-16 02:32:00,54.5,51.6,30.10,WNW,288,0.0,0.0,90,0.00,,SCT,0.00,0.00,VWS V14.01,2013-08-16 07:32:00,
2013-08-16 02:37:00,54.3,51.4,30.10,WNW,288,0.0,0.0,90,0.00,,SCT,0.00,0.00,VWS V14.01,2013-08-16 07:37:00,
2013-08-16 02:42:00,54.2,51.3,30.10,WNW,288,0.0,0.0,90,0.00,,SCT,0.00,0.00,VWS V14.01,2013-08-16 07:42:00,
2013-08-16 02:47:00,54.0,50.8,30.10,WNW,288,0.0,0.0,89,0.00,,SCT,0.00,0.00,VWS V14.01,2013-08-16 07:47:00,
2013-08-16 02:52:00,53.9,51.0,30.10,WNW,288,0.0,0.0,90,0.00,,SCT,0.00,0.00,VWS V14.01,2013-08-16 07:52:00,
2013-08-16 02:57:00,53.8,50.9,30.10,WNW,288,0.0,0.0,90,0.00,,SCT,0.00,0.00,VWS V14.01,2013-08-16 07:57:00,
2013-08-16 03:02:00,53.7,50.8,30.10,WNW,288,0.0,0.0,90,0.00,,SCT,0.00,0.00,VWS V14.01,2013-08-16 08:02:00,
2013-08-16 03:07:00,53.7,50.8,30.10,WNW,288,0.0,0.0,90,0.00,,SCT,0.00,0.00,VWS V14.01,2013-08-16 08:07:00,
2013-08-16 03:12:00,53.6,50.7,30.10,WNW,288,0.0,0.0,90,0.00,,SCT,0.00,0.00,VWS V14.01,2013-08-16 08:12:00,
2013-08-16 03:17:00,53.6,50.7,30.11,WNW,288,0.0,0.0,90,0.00,,SCT,0.00,0.00,VWS V14.01,2013-08-16 08:17:00,
2013-08-16 03:22:00,53.5,50.6,30.10,WNW,288,0.0,0.0,90,0.00,,SCT,0.00,0.00,VWS V14.01,2013-08-16 08:22:00,
2013-08-16 03:27:00,53.4,50.5,30.11,WNW,288,0.0,0.0,90,0.00,,SCT,0.00,0.00,VWS V14.01,2013-08-16 08:27:00,
2013-08-16 03:32:00,53.3,50.5,30.10,WNW,288,0.0,0.0,90,0.00,,SCT,0.00,0.00,VWS V14.01,2013-08-16 08:32:00,
2013-08-16 03:37:00,53.2,50.3,30.10,WNW,288,0.0,0.0,90,0.00,,SCT,0.00,0.00,VWS V14.01,2013-08-16 08:37:00,
2013-08-16 03:42:00,53.0,50.2,30.10,WNW,288,0.0,0.0,90,0.00,,SCT,0.00,0.00,VWS V14.01,2013-08-16 08:42:00,
2013-08-16 03:47:00,52.9,50.0,30.11,WNW,288,0.0,0.0,90,0.00,,SCT,0.00,0.00,VWS V14.01,2013-08-16 08:47:00,
2013-08-16 03:52:00,52.9,50.0,30.11,WNW,288,0.0,0.0,90,0.00,,SCT,0.00,0.00,VWS V14.01,2013-08-16 08:52:00,
2013-08-16 03:57:00,52.8,50.0,30.11,WNW,288,0.0,0.0,90,0.00,,SCT,0.00,0.00,VWS V14.01,2013-08-16 08:57:00,
2013-08-16 04:02:00,52.8,50.0,30.11,WNW,288,0.0,0.0,90,0.00,,SCT,0.00,0.00,VWS V14.01,2013-08-16 09:02:00,
2013-08-16 04:07:00,52.8,50.2,30.11,WNW,288,0.0,0.0,91,0.00,,SCT,0.00,0.00,VWS V14.01,2013-08-16 09:07:00,
2013-08-16 04:12:00,52.8,50.2,30.11,WNW,288,0.0,0.0,91,0.00,,SCT,0.00,0.00,VWS V14.01,2013-08-16 09:12:00,
2013-08-16 04:17:00,52.7,50.2,30.11,WNW,288,0.0,0.0,91,0.00,,SCT,0.00,0.00,VWS V14.01,2013-08-16 09:17:00,
2013-08-16 04:22:00,52.7,50.2,30.11,WNW,288,0.0,0.0,91,0.00,,SCT,0.00,0.00,VWS V14.01,2013-08-16 09:22:00,
2013-08-16 04:27:00,52.6,50.0,30.11,WNW,288,0.0,0.0,91,0.00,,SCT,0.00,0.00,VWS V14.01,2013-08-16 09:27:00,
2013-08-16 04:32:00,52.4,49.6,30.11,WNW,288,0.0,0.0,90,0.00,,SCT,0.00,0.00,VWS V14.01,2013-08-16 09:32:00,
2013-08-16 04:37:00,52.2,49.4,30.11,WNW,288,0.0,0.0,90,0.00,,SCT,0.00,0.00,VWS V14.01,2013-08-16 09:37:00,
2013-08-16 04:42:00,52.0,49.2,30.11,WNW,288,0.0,0.0,90,0.00,,SCT,0.00,0.00,VWS V14.01,2013-08-16 09:42:00,
2013-08-16 04:47:00,51.9,49.1,30.11,WNW,288,0.0,0.0,90,0.00,,SCT,0.00,0.00,VWS V14.01,2013-08-16 09:47:00,
2013-08-16 04:52:00,51.9,49.1,30.11,WNW,288,0.0,0.0,90,0.00,,SCT,0.00,0.00,VWS V14.01,2013-08-16 09:52:00,
2013-08-16 04:57:00,51.8,49.3,30.11,WNW,288,0.0,0.0,91,0.00,,SCT,0.00,0.00,VWS V14.01,2013-08-16 09:57:00,
2013-08-16 05:02:00,51.7,49.2,30.11,WNW,288,0.0,0.0,91,0.00,,SCT,0.00,0.00,VWS V14.01,2013-08-16 10:02:00,
2013-08-16 05:07:00,51.7,48.9,30.11,WNW,288,0.0,0.0,90,0.00,,SCT,0.00,0.00,VWS V14.01,2013-08-16 10:07:00,
2013-08-16 05:12:00,51.6,48.8,30.11,WNW,288,0.0,0.0,90,0.00,,SCT,0.00,0.00,VWS V14.01,2013-08-16 10:12:00,
2013-08-16 05:17:00,51.5,48.7,30.11,WNW,288,0.0,0.0,90,0.00,,SCT,0.00,0.00,VWS V14.01,2013-08-16 10:17:00,
2013-08-16 05:22:00,51.5,49.0,30.11,WNW,288,0.0,0.0,91,0.00,,SCT,0.00,0.00,VWS V14.01,2013-08-16 10:22:00,
2013-08-16 05:27:00,51.5,49.0,30.11,WNW,288,0.0,0.0,91,0.00,,SCT,0.00,0.00,VWS V14.01,2013-08-16 10:27:00,
2013-08-16 05:32:00,51.3,48.8,30.11,WNW,288,0.0,0.0,91,0.00,,SCT,0.00,0.00,VWS V14.01,2013-08-16 10:32:00,
2013-08-16 05:37:00,51.2,48.7,30.11,WNW,288,0.0,0.0,91,0.00,,SCT,0.00,0.00,VWS V14.01,2013-08-16 10:37:00,
2013-08-16 05:42:00,51.1,48.6,30.11,WNW,288,0.0,0.0,91,0.00,,SCT,0.00,0.00,VWS V14.01,2013-08-16 10:42:00,
2013-08-16 05:47:00,51.0,48.2,30.11,WNW,288,0.0,0.0,90,0.00,,SCT,0.00,0.00,VWS V14.01,2013-08-16 10:47:00,
2013-08-16 05:53:00,50.9,48.1,30.11,WNW,288,0.0,0.0,90,0.00,,SCT,0.00,0.00,VWS V14.01,2013-08-16 10:53:00,
2013-08-16 05:58:00,50.8,48.0,30.11,WNW,288,0.0,0.0,90,0.00,,SCT,0.00,0.00,VWS V14.01,2013-08-16 10:58:00,
2013-08-16 06:03:00,50.7,47.9,30.12,WNW,288,0.0,0.0,90,0.00,,SCT,0.00,0.00,VWS V14.01,2013-08-16 11:03:00,
2013-08-16 06:08:00,50.6,48.1,30.12,WNW,288,0.0,0.0,91,0.00,,SCT,0.00,0.00,VWS V14.01,2013-08-16 11:08:00,
2013-08-16 06:13:00,50.6,48.1,30.12,WNW,288,0.0,0.0,91,0.00,,SCT,0.00,5.00,VWS V14.01,2013-08-16 11:13:00,
2013-08-16 06:18:00,50.6,48.1,30.12,WNW,288,0.0,0.0,91,0.00,,SCT,0.00,7.00,VWS V14.01,2013-08-16 11:18:00,
2013-08-16 06:23:00,50.5,48.0,30.12,WNW,288,0.0,0.0,91,0.00,,SCT,0.00,9.00,VWS V14.01,2013-08-16 11:23:00,
2013-08-16 06:28:00,50.5,48.0,30.12,WNW,288,0.0,0.0,91,0.00,,SCT,0.00,11.00,VWS V14.01,2013-08-16 11:28:00,
2013-08-16 06:33:00,50.5,48.0,30.12,WNW,288,0.0,0.0,91,0.00,,SCT,0.00,12.00,VWS V14.01,2013-08-16 11:33:00,
2013-08-16 06:38:00,50.5,48.0,30.12,WNW,288,0.0,0.0,91,0.00,,SCT,0.00,14.00,VWS V14.01,2013-08-16 11:38:00,
2013-08-16 06:43:00,50.4,47.9,30.12,WNW,288,0.0,0.0,91,0.00,,SCT,0.00,16.00,VWS V14.01,2013-08-16 11:43:00,
2013-08-16 06:48:00,50.4,47.9,30.12,WNW,288,0.0,0.0,91,0.00,,SCT,0.00,18.00,VWS V14.01,2013-08-16 11:48:00,
2013-08-16 06:53:00,50.4,47.9,30.12,WNW,288,0.0,0.0,91,0.00,,SCT,0.00,18.00,VWS V14.01,2013-08-16 11:53:00,
2013-08-16 06:58:00,50.4,47.9,30.12,WNW,288,0.0,0.0,91,0.00,,SCT,0.00,19.00,VWS V14.01,2013-08-16 11:58:00,
2013-08-16 07:03:00,50.3,47.8,30.13,WNW,288,0.0,0.0,91,0.00,,SCT,0.00,21.00,VWS V14.01,2013-08-16 12:03:00,
2013-08-16 07:08:00,50.4,47.9,30.13,WNW,288,0.0,0.0,91,0.00,,SCT,0.00,23.00,VWS V14.01,2013-08-16 12:08:00,
2013-08-16 07:13:00,50.4,48.2,30.13,WNW,288,0.0,0.0,92,0.00,,SCT,0.00,25.00,VWS V14.01,2013-08-16 12:13:00,
2013-08-16 07:18:00,50.5,48.3,30.13,WNW,288,0.0,0.0,92,0.00,,SCT,0.00,26.00,VWS V14.01,2013-08-16 12:18:00,
2013-08-16 07:23:00,50.6,48.4,30.13,WNW,288,0.0,0.0,92,0.00,,SCT,0.00,28.00,VWS V14.01,2013-08-16 12:23:00,
2013-08-16 07:28:00,50.7,48.5,30.14,WNW,288,0.0,0.0,92,0.00,,SCT,0.00,30.00,VWS V14.01,2013-08-16 12:28:00,
2013-08-16 07:33:00,51.0,48.8,30.14,WNW,288,0.0,0.0,92,0.00,,SCT,0.00,32.00,VWS V14.01,2013-08-16 12:33:00,
2013-08-16 07:38:00,51.4,49.5,30.14,WNW,288,0.0,0.0,93,0.00,,SCT,0.00,33.00,VWS V14.01,2013-08-16 12:38:00,
2013-08-16 07:43:00,51.8,49.8,30.14,WNW,288,0.0,0.0,93,0.00,,SCT,0.00,35.00,VWS V14.01,2013-08-16 12:43:00,
2013-08-16 07:48:00,52.2,50.2,30.14,WNW,288,0.0,0.0,93,0.00,,SCT,0.00,35.00,VWS V14.01,2013-08-16 12:48:00,
2013-08-16 07:53:00,52.6,50.6,30.14,WNW,288,0.0,0.0,93,0.00,,SCT,0.00,37.00,VWS V14.01,2013-08-16 12:53:00,
2013-08-16 07:58:00,53.1,51.4,30.14,WNW,288,0.0,0.0,94,0.00,,SCT,0.00,40.00,VWS V14.01,2013-08-16 12:58:00,
2013-08-16 08:03:00,53.9,52.2,30.14,WNW,288,0.0,0.0,94,0.00,,SCT,0.00,42.00,VWS V14.01,2013-08-16 13:03:00,
2013-08-16 08:08:00,54.8,53.1,30.14,WNW,288,0.0,0.0,94,0.00,,SCT,0.00,44.00,VWS V14.01,2013-08-16 13:08:00,
2013-08-16 08:13:00,55.6,53.9,30.14,WNW,288,0.0,0.0,94,0.00,,SCT,0.00,46.00,VWS V14.01,2013-08-16 13:13:00,
2013-08-16 08:18:00,56.1,54.4,30.14,WNW,288,0.0,0.0,94,0.00,,SCT,0.00,46.00,VWS V14.01,2013-08-16 13:18:00,
2013-08-16 08:23:00,56.6,54.9,30.14,WNW,288,0.0,0.0,94,0.00,,SCT,0.00,49.00,VWS V14.01,2013-08-16 13:23:00,
2013-08-16 08:28:00,57.0,55.3,30.14,WNW,288,0.0,0.0,94,0.00,,SCT,0.00,51.00,VWS V14.01,2013-08-16 13:28:00,
2013-08-16 08:33:00,57.6,55.9,30.14,WNW,288,0.0,0.0,94,0.00,,SCT,0.00,51.00,VWS V14.01,2013-08-16 13:33:00,
2013-08-16 08:38:00,58.2,56.5,30.14,WNW,288,0.0,0.0,94,0.00,,SCT,0.00,54.00,VWS V14.01,2013-08-16 13:38:00,
2013-08-16 08:43:00,58.6,56.9,30.14,WNW,288,0.0,0.0,94,0.00,,SCT,0.00,58.00,VWS V14.01,2013-08-16 13:43:00,
2013-08-16 08:48:00,58.9,57.2,30.14,WNW,288,0.0,0.0,94,0.00,,SCT,0.00,63.00,VWS V14.01,2013-08-16 13:48:00,
2013-08-16 08:53:00,59.0,57.3,30.14,WNW,288,0.0,0.0,94,0.00,,SCT,0.00,357.00,VWS V14.01,2013-08-16 13:53:00,
2013-08-16 08:58:00,59.3,57.6,30.15,WNW,288,0.0,0.0,94,0.00,,SCT,0.00,367.00,VWS V14.01,2013-08-16 13:58:00,
2013-08-16 09:03:00,59.8,58.1,30.15,WNW,288,0.0,0.0,94,0.00,,SCT,0.00,381.00,VWS V14.01,2013-08-16 14:03:00,
2013-08-16 09:08:00,60.4,58.7,30.15,WNW,288,0.0,0.0,94,0.00,,SCT,0.00,399.00,VWS V14.01,2013-08-16 14:08:00,
2013-08-16 09:13:00,61.0,59.3,30.14,WNW,288,0.0,0.0,94,0.00,,SCT,0.00,418.00,VWS V14.01,2013-08-16 14:13:00,
2013-08-16 09:18:00,61.6,59.9,30.15,WNW,288,0.0,0.0,94,0.00,,SCT,0.00,434.00,VWS V14.01,2013-08-16 14:18:00,
2013-08-16 09:23:00,62.1,60.4,30.15,WNW,288,0.0,0.0,94,0.00,,SCT,0.00,466.00,VWS V14.01,2013-08-16 14:23:00,
2013-08-16 09:28:00,62.7,60.3,30.14,WNW,288,0.0,0.0,92,0.00,,SCT,0.00,483.00,VWS V14.01,2013-08-16 14:28:00,
2013-08-16 09:33:00,63.5,60.8,30.15,WNW,288,0.0,0.0,91,0.00,,SCT,0.00,499.00,VWS V14.01,2013-08-16 14:33:00,
2013-08-16 09:38:00,64.4,60.5,30.15,WNW,288,0.0,0.0,87,0.00,,SCT,0.00,517.00,VWS V14.01,2013-08-16 14:38:00,
2013-08-16 09:43:00,65.4,60.1,30.15,WNW,288,0.0,0.0,83,0.00,,SCT,0.00,527.00,VWS V14.01,2013-08-16 14:43:00,
2013-08-16 09:48:00,66.6,59.9,30.15,WNW,288,0.0,0.0,79,0.00,,SCT,0.00,538.00,VWS V14.01,2013-08-16 14:48:00,
2013-08-16 09:54:00,67.9,60.1,30.14,WNW,288,0.0,0.0,76,0.00,,SCT,0.00,555.00,VWS V14.01,2013-08-16 14:54:00,
2013-08-16 09:59:00,68.8,59.4,30.14,WNW,286,0.0,0.0,72,0.00,,SCT,0.00,573.00,VWS V14.01,2013-08-16 14:59:00,
2013-08-16 10:04:00,69.8,60.0,30.14,West,263,0.0,0.0,71,0.00,,SCT,0.00,580.00,VWS V14.01,2013-08-16 15:04:00,
2013-08-16 10:09:00,70.5,59.0,30.14,WSW,253,0.0,0.0,67,0.00,,SCT,0.00,592.00,VWS V14.01,2013-08-16 15:09:00,
2013-08-16 10:14:00,71.2,58.8,30.14,WSW,246,0.0,0.0,65,0.00,,SCT,0.00,603.00,VWS V14.01,2013-08-16 15:14:00,
2013-08-16 10:19:00,71.7,58.5,30.14,WSW,246,0.0,0.0,63,0.00,,SCT,0.00,617.00,VWS V14.01,2013-08-16 15:19:00,
2013-08-16 10:24:00,72.1,57.9,30.14,WSW,246,0.0,0.0,61,0.00,,SCT,0.00,631.00,VWS V14.01,2013-08-16 15:24:00,
2013-08-16 10:29:00,72.5,56.9,30.14,WSW,244,0.0,5.0,58,0.00,,SCT,0.00,645.00,VWS V14.01,2013-08-16 15:29:00,
2013-08-16 10:34:00,72.8,56.2,30.14,WSW,243,0.0,0.0,56,0.00,,SCT,0.00,652.00,VWS V14.01,2013-08-16 15:34:00,
2013-08-16 10:39:00,73.1,56.0,30.15,WSW,254,0.0,6.0,55,0.00,,SCT,0.00,668.00,VWS V14.01,2013-08-16 15:39:00,
2013-08-16 10:44:00,73.2,56.6,30.14,WSW,254,0.0,0.0,56,0.00,,SCT,0.00,707.00,VWS V14.01,2013-08-16 15:44:00,
2013-08-16 10:49:00,73.4,57.3,30.14,West,266,3.0,6.0,57,0.00,,SCT,0.00,721.00,VWS V14.01,2013-08-16 15:49:00,
2013-08-16 10:54:00,73.5,56.4,30.15,WSW,242,4.0,8.0,55,0.00,,SCT,0.00,800.00,VWS V14.01,2013-08-16 15:54:00,
2013-08-16 10:59:00,73.6,56.0,30.15,West,276,2.0,8.0,54,0.00,,SCT,0.00,854.00,VWS V14.01,2013-08-16 15:59:00,
2013-08-16 11:04:00,73.7,55.5,30.14,WSW,243,0.0,3.0,53,0.00,,SCT,0.00,881.00,VWS V14.01,2013-08-16 16:04:00,
2013-08-16 11:09:00,74.0,56.8,30.14,WNW,289,4.0,8.0,55,0.00,,SCT,0.00,200.00,VWS V14.01,2013-08-16 16:09:00,
2013-08-16 11:14:00,73.9,55.7,30.15,West,275,7.0,8.0,53,0.00,,SCT,0.00,207.00,VWS V14.01,2013-08-16 16:14:00,
2013-08-16 11:19:00,73.6,56.5,30.15,West,267,1.0,4.0,55,0.00,,SCT,0.00,214.00,VWS V14.01,2013-08-16 16:19:00,
2013-08-16 11:24:00,73.3,55.7,30.14,West,266,3.0,4.0,54,0.00,,SCT,0.00,849.00,VWS V14.01,2013-08-16 16:24:00,
2013-08-16 11:29:00,73.3,55.7,30.15,WNW,284,4.0,11.0,54,0.00,,SCT,0.00,181.00,VWS V14.01,2013-08-16 16:29:00,
2013-08-16 11:34:00,73.2,56.1,30.14,WSW,247,3.0,9.0,55,0.00,,SCT,0.00,875.00,VWS V14.01,2013-08-16 16:34:00,
2013-08-16 11:39:00,73.5,56.4,30.14,WSW,240,3.0,9.0,55,0.00,,SCT,0.00,888.00,VWS V14.01,2013-08-16 16:39:00,
2013-08-16 11:44:00,73.7,56.5,30.15,West,267,4.0,6.0,55,0.00,,SCT,0.00,886.00,VWS V14.01,2013-08-16 16:44:00,
2013-08-16 11:49:00,73.9,55.7,30.15,West,271,7.0,7.0,53,0.00,,SCT,0.00,788.00,VWS V14.01,2013-08-16 16:49:00,
2013-08-16 11:54:00,73.8,56.1,30.15,West,263,3.0,8.0,54,0.00,,SCT,0.00,190.00,VWS V14.01,2013-08-16 16:54:00,
2013-08-16 11:59:00,73.7,57.0,30.14,West,262,2.0,5.0,56,0.00,,SCT,0.00,826.00,VWS V14.01,2013-08-16 16:59:00,
2013-08-16 12:04:00,73.9,55.2,30.14,West,262,0.0,0.0,52,0.00,,SCT,0.00,912.00,VWS V14.01,2013-08-16 17:04:00,
2013-08-16 12:09:00,73.9,57.2,30.14,West,267,8.0,8.0,56,0.00,,SCT,0.00,281.00,VWS V14.01,2013-08-16 17:09:00,
2013-08-16 12:14:00,73.9,56.7,30.14,West,269,6.0,8.0,55,0.00,,SCT,0.00,281.00,VWS V14.01,2013-08-16 17:14:00,
2013-08-16 12:19:00,73.6,57.4,30.14,West,271,0.0,8.0,57,0.00,,SCT,0.00,213.00,VWS V14.01,2013-08-16 17:19:00,
2013-08-16 12:24:00,73.4,56.8,30.14,West,271,0.0,3.0,56,0.00,,SCT,0.00,218.00,VWS V14.01,2013-08-16 17:24:00,
2013-08-16 12:29:00,73.3,56.2,30.14,West,262,1.0,3.0,55,0.00,,SCT,0.00,234.00,VWS V14.01,2013-08-16 17:29:00,
2013-08-16 12:34:00,73.3,58.1,30.14,West,277,9.0,9.0,59,0.00,,SCT,0.00,229.00,VWS V14.01,2013-08-16 17:34:00,
2013-08-16 12:39:00,73.2,56.1,30.14,West,279,3.0,7.0,55,0.00,,SCT,0.00,160.00,VWS V14.01,2013-08-16 17:39:00,
2013-08-16 12:44:00,73.1,57.0,30.14,West,279,0.0,5.0,57,0.00,,SCT,0.00,163.00,VWS V14.01,2013-08-16 17:44:00,
2013-08-16 12:49:00,73.2,57.1,30.14,West,273,3.0,3.0,57,0.00,,SCT,0.00,949.00,VWS V14.01,2013-08-16 17:49:00,
2013-08-16 12:54:00,73.7,57.5,30.14,WSW,251,2.0,7.0,57,0.00,,SCT,0.00,969.00,VWS V14.01,2013-08-16 17:54:00,
2013-08-16 12:59:00,74.4,56.7,30.13,NW,311,1.0,8.0,54,0.00,,SCT,0.00,1009.00,VWS V14.01,2013-08-16 17:59:00,
2013-08-16 13:05:00,74.6,56.9,30.14,West,273,10.0,12.0,54,0.00,,SCT,0.00,206.00,VWS V14.01,2013-08-16 18:05:00,
2013-08-16 13:10:00,74.2,56.0,30.14,WNW,288,5.0,8.0,53,0.00,,SCT,0.00,199.00,VWS V14.01,2013-08-16 18:10:00,
2013-08-16 13:15:00,73.8,57.1,30.14,West,280,8.0,8.0,56,0.00,,SCT,0.00,253.00,VWS V14.01,2013-08-16 18:15:00,
2013-08-16 13:20:00,73.8,56.6,30.14,West,259,5.0,6.0,55,0.00,,SCT,0.00,909.00,VWS V14.01,2013-08-16 18:20:00,
2013-08-16 13:25:00,74.1,54.3,30.14,WSW,248,9.0,10.0,50,0.00,,SCT,0.00,889.00,VWS V14.01,2013-08-16 18:25:00,
2013-08-16 13:30:00,74.5,55.7,30.13,WNW,288,5.0,10.0,52,0.00,,SCT,0.00,888.00,VWS V14.01,2013-08-16 18:30:00,
2013-08-16 13:35:00,74.9,55.6,30.13,West,277,2.0,10.0,51,0.00,,SCT,0.00,886.00,VWS V14.01,2013-08-16 18:35:00,
2013-08-16 13:40:00,75.2,55.8,30.13,WSW,249,4.0,6.0,51,0.00,,SCT,0.00,898.00,VWS V14.01,2013-08-16 18:40:00,
2013-08-16 13:45:00,75.6,55.1,30.13,WSW,250,7.0,14.0,49,0.00,,SCT,0.00,893.00,VWS V14.01,2013-08-16 18:45:00,
2013-08-16 13:50:00,75.9,56.0,30.13,WSW,255,3.0,10.0,50,0.00,,SCT,0.00,916.00,VWS V14.01,2013-08-16 18:50:00,
2013-08-16 13:55:00,76.1,55.6,30.13,West,270,6.0,9.0,49,0.00,,SCT,0.00,912.00,VWS V14.01,2013-08-16 18:55:00,
2013-08-16 14:00:00,76.3,55.2,30.12,West,265,7.0,9.0,48,0.00,,SCT,0.00,891.00,VWS V14.01,2013-08-16 19:00:00,
2013-08-16 14:05:00,76.4,54.7,30.12,WSW,242,3.0,6.0,47,0.00,,SCT,0.00,896.00,VWS V14.01,2013-08-16 19:05:00,
2013-08-16 14:10:00,76.6,54.3,30.12,West,263,0.0,3.0,46,0.00,,SCT,0.00,236.00,VWS V14.01,2013-08-16 19:10:00,
2013-08-16 14:15:00,76.6,54.3,30.12,West,264,5.0,5.0,46,0.00,,SCT,0.00,940.00,VWS V14.01,2013-08-16 19:15:00,
2013-08-16 14:20:00,76.7,55.5,30.12,West,267,1.0,6.0,48,0.00,,SCT,0.00,911.00,VWS V14.01,2013-08-16 19:20:00,
2013-08-16 14:25:00,76.9,58.0,30.12,WSW,244,3.0,6.0,52,0.00,,SCT,0.00,939.00,VWS V14.01,2013-08-16 19:25:00,
2013-08-16 14:30:00,77.2,58.2,30.12,WSW,243,9.0,9.0,52,0.00,,SCT,0.00,919.00,VWS V14.01,2013-08-16 19:30:00,
2013-08-16 14:35:00,77.3,55.5,30.11,SW,233,6.0,8.0,47,0.00,,SCT,0.00,865.00,VWS V14.01,2013-08-16 19:35:00,
2013-08-16 14:40:00,77.3,54.9,30.12,WSW,253,5.0,10.0,46,0.00,,SCT,0.00,838.00,VWS V14.01,2013-08-16 19:40:00,
2013-08-16 14:45:00,77.2,54.8,30.12,West,265,3.0,7.0,46,0.00,,SCT,0.00,840.00,VWS V14.01,2013-08-16 19:45:00,
2013-08-16 14:50:00,77.2,54.8,30.11,WSW,237,5.0,8.0,46,0.00,,SCT,0.00,817.00,VWS V14.01,2013-08-16 19:50:00,
2013-08-16 14:55:00,77.2,53.6,30.11,West,279,9.0,12.0,44,0.00,,SCT,0.00,823.00,VWS V14.01,2013-08-16 19:55:00,
2013-08-16 15:00:00,77.2,53.6,30.11,WNW,298,3.0,9.0,44,0.00,,SCT,0.00,819.00,VWS V14.01,2013-08-16 20:00:00,
2013-08-16 15:05:00,77.3,54.9,30.11,West,261,3.0,8.0,46,0.00,,SCT,0.00,823.00,VWS V14.01,2013-08-16 20:05:00,
2013-08-16 15:10:00,77.4,55.0,30.11,West,271,6.0,8.0,46,0.00,,SCT,0.00,812.00,VWS V14.01,2013-08-16 20:10:00,
2013-08-16 15:15:00,77.4,54.4,30.12,West,277,6.0,8.0,45,0.00,,SCT,0.00,840.00,VWS V14.01,2013-08-16 20:15:00,
2013-08-16 15:20:00,77.5,54.5,30.11,WSW,244,0.0,10.0,45,0.00,,SCT,0.00,696.00,VWS V14.01,2013-08-16 20:20:00,
2013-08-16 15:25:00,77.5,55.1,30.11,WSW,243,1.0,6.0,46,0.00,,SCT,0.00,188.00,VWS V14.01,2013-08-16 20:25:00,
2013-08-16 15:30:00,77.5,55.7,30.11,WSW,244,7.0,7.0,47,0.00,,SCT,0.00,798.00,VWS V14.01,2013-08-16 20:30:00,
2013-08-16 15:35:00,77.6,55.8,30.11,WSW,240,2.0,7.0,47,0.00,,SCT,0.00,809.00,VWS V14.01,2013-08-16 20:35:00,
2013-08-16 15:40:00,77.7,54.7,30.11,WSW,240,3.0,7.0,45,0.00,,SCT,0.00,793.00,VWS V14.01,2013-08-16 20:40:00,
2013-08-16 15:45:00,78.1,56.8,30.11,WSW,240,4.0,4.0,48,0.00,,SCT,0.00,798.00,VWS V14.01,2013-08-16 20:45:00,
2013-08-16 15:50:00,78.3,55.2,30.11,WSW,244,5.0,7.0,45,0.00,,SCT,0.00,761.00,VWS V14.01,2013-08-16 20:50:00,
2013-08-16 15:55:00,78.3,54.6,30.11,WSW,242,2.0,7.0,44,0.00,,SCT,0.00,756.00,VWS V14.01,2013-08-16 20:55:00,
2013-08-16 16:00:00,78.4,55.3,30.11,WSW,257,2.0,4.0,45,0.00,,SCT,0.00,772.00,VWS V14.01,2013-08-16 21:00:00,
2013-08-16 16:05:00,78.7,55.0,30.11,West,267,0.0,4.0,44,0.00,,SCT,0.00,761.00,VWS V14.01,2013-08-16 21:05:00,
2013-08-16 16:10:00,78.7,56.2,30.11,West,275,0.0,3.0,46,0.00,,SCT,0.00,742.00,VWS V14.01,2013-08-16 21:10:00,
2013-08-16 16:15:00,79.0,54.6,30.11,West,276,0.0,1.0,43,0.00,,SCT,0.00,701.00,VWS V14.01,2013-08-16 21:15:00,
2013-08-16 16:21:00,79.2,55.4,30.11,West,276,2.0,2.0,44,0.00,,SCT,0.00,673.00,VWS V14.01,2013-08-16 21:21:00,
2013-08-16 16:26:00,79.3,54.2,30.11,West,259,2.0,5.0,42,0.00,,SCT,0.00,650.00,VWS V14.01,2013-08-16 21:26:00,
2013-08-16 16:31:00,79.1,58.3,30.11,West,264,4.0,5.0,49,0.00,,SCT,0.00,628.00,VWS V14.01,2013-08-16 21:31:00,
2013-08-16 16:36:00,79.0,56.5,30.11,WSW,255,0.0,4.0,46,0.00,,SCT,0.00,613.00,VWS V14.01,2013-08-16 21:36:00,
2013-08-16 16:41:00,79.0,57.1,30.11,WNW,284,4.0,7.0,47,0.00,,SCT,0.00,606.00,VWS V14.01,2013-08-16 21:41:00,
2013-08-16 16:46:00,78.9,55.2,30.11,West,263,6.0,7.0,44,0.00,,SCT,0.00,589.00,VWS V14.01,2013-08-16 21:46:00,
2013-08-16 16:51:00,78.9,54.5,30.11,WSW,244,3.0,5.0,43,0.00,,SCT,0.00,573.00,VWS V14.01,2013-08-16 21:51:00,
2013-08-16 16:56:00,78.8,53.1,30.11,WSW,249,3.0,4.0,41,0.00,,SCT,0.00,559.00,VWS V14.01,2013-08-16 21:56:00,
2013-08-16 17:01:00,79.0,57.1,30.11,WSW,252,4.0,5.0,47,0.00,,SCT,0.00,533.00,VWS V14.01,2013-08-16 22:01:00,
2013-08-16 17:06:00,79.0,55.9,30.11,West,265,3.0,7.0,45,0.00,,SCT,0.00,526.00,VWS V14.01,2013-08-16 22:06:00,
2013-08-16 17:11:00,79.1,57.2,30.11,West,265,0.0,4.0,47,0.00,,SCT,0.00,510.00,VWS V14.01,2013-08-16 22:11:00,
2013-08-16 17:16:00,79.1,57.2,30.11,West,270,2.0,6.0,47,0.00,,SCT,0.00,492.00,VWS V14.01,2013-08-16 22:16:00,
2013-08-16 17:21:00,79.0,54.6,30.11,West,270,0.0,5.0,43,0.00,,SCT,0.00,487.00,VWS V14.01,2013-08-16 22:21:00,
2013-08-16 17:26:00,79.2,57.2,30.11,West,270,0.0,2.0,47,0.00,,SCT,0.00,469.00,VWS V14.01,2013-08-16 22:26:00,
2013-08-16 17:31:00,79.5,55.1,30.11,West,270,0.0,1.0,43,0.00,,SCT,0.00,448.00,VWS V14.01,2013-08-16 22:31:00,
2013-08-16 17:36:00,79.7,57.7,30.11,West,269,0.0,0.0,47,0.00,,SCT,0.00,436.00,VWS V14.01,2013-08-16 22:36:00,
2013-08-16 17:41:00,80.0,58.6,30.11,WSW,244,3.0,6.0,48,0.00,,SCT,0.00,424.00,VWS V14.01,2013-08-16 22:41:00,
2013-08-16 17:46:00,79.8,57.8,30.11,WSW,256,0.0,6.0,47,0.00,,SCT,0.00,399.00,VWS V14.01,2013-08-16 22:46:00,
2013-08-16 17:51:00,79.7,55.9,30.11,WSW,257,1.0,6.0,44,0.00,,SCT,0.00,385.00,VWS V14.01,2013-08-16 22:51:00,
2013-08-16 17:56:00,79.6,57.0,30.11,West,260,0.0,5.0,46,0.00,,SCT,0.00,366.00,VWS V14.01,2013-08-16 22:56:00,
2013-08-16 18:01:00,79.7,57.7,30.11,West,259,0.0,3.0,47,0.00,,SCT,0.00,353.00,VWS V14.01,2013-08-16 23:01:00,
2013-08-16 18:06:00,79.6,57.6,30.11,West,259,0.0,2.0,47,0.00,,SCT,0.00,338.00,VWS V14.01,2013-08-16 23:06:00,
2013-08-16 18:11:00,79.6,58.8,30.11,West,259,2.0,4.0,49,0.00,,SCT,0.00,318.00,VWS V14.01,2013-08-16 23:11:00,
2013-08-16 18:16:00,79.6,58.2,30.11,West,259,0.0,0.0,48,0.00,,SCT,0.00,301.00,VWS V14.01,2013-08-16 23:16:00,
2013-08-16 18:21:00,79.5,58.7,30.11,West,259,1.0,3.0,49,0.00,,SCT,0.00,292.00,VWS V14.01,2013-08-16 23:21:00,
2013-08-16 18:26:00,79.4,58.6,30.11,West,259,0.0,2.0,49,0.00,,SCT,0.00,271.00,VWS V14.01,2013-08-16 23:26:00,
2013-08-16 18:31:00,79.3,57.9,30.11,WSW,252,4.0,5.0,48,0.00,,SCT,0.00,255.00,VWS V14.01,2013-08-16 23:31:00,
2013-08-16 18:36:00,78.9,58.7,30.11,WSW,249,1.0,1.0,50,0.00,,SCT,0.00,239.00,VWS V14.01,2013-08-16 23:36:00,
2013-08-16 18:41:00,78.7,59.6,30.11,WSW,248,0.0,0.0,52,0.00,,SCT,0.00,220.00,VWS V14.01,2013-08-16 23:41:00,
2013-08-16 18:46:00,78.5,58.9,30.11,WSW,248,1.0,1.0,51,0.00,,SCT,0.00,206.00,VWS V14.01,2013-08-16 23:46:00,
2013-08-16 18:51:00,78.3,59.2,30.11,WSW,248,0.0,0.0,52,0.00,,SCT,0.00,186.00,VWS V14.01,2013-08-16 23:51:00,
2013-08-16 18:56:00,78.2,60.7,30.11,WSW,248,0.0,0.0,55,0.00,,SCT,0.00,169.00,VWS V14.01,2013-08-16 23:56:00,
2013-08-16 19:01:00,78.0,61.5,30.11,SW,235,3.0,5.0,57,0.00,,SCT,0.00,151.00,VWS V14.01,2013-08-17 00:01:00,
2013-08-16 19:06:00,77.6,60.7,30.11,WSW,254,4.0,4.0,56,0.00,,SCT,0.00,130.00,VWS V14.01,2013-08-17 00:06:00,
2013-08-16 19:11:00,77.2,59.8,30.11,WSW,255,1.0,3.0,55,0.00,,SCT,0.00,113.00,VWS V14.01,2013-08-17 00:11:00,
2013-08-16 19:16:00,76.8,60.4,30.11,WSW,252,1.0,2.0,57,0.00,,SCT,0.00,97.00,VWS V14.01,2013-08-17 00:16:00,
2013-08-16 19:21:00,76.4,59.6,30.11,WSW,255,1.0,1.0,56,0.00,,SCT,0.00,79.00,VWS V14.01,2013-08-17 00:21:00,
2013-08-16 19:26:00,76.0,60.2,30.11,WSW,252,2.0,2.0,58,0.00,,SCT,0.00,65.00,VWS V14.01,2013-08-17 00:26:00,
2013-08-16 19:31:00,75.4,60.1,30.11,WSW,255,1.0,2.0,59,0.00,,SCT,0.00,33.00,VWS V14.01,2013-08-17 00:31:00,
2013-08-16 19:37:00,74.8,60.0,30.11,WSW,253,2.0,2.0,60,0.00,,SCT,0.00,28.00,VWS V14.01,2013-08-17 00:37:00,
2013-08-16 19:42:00,74.4,60.1,30.11,WSW,240,2.0,2.0,61,0.00,,SCT,0.00,25.00,VWS V14.01,2013-08-17 00:42:00,
2013-08-16 19:47:00,74.1,60.7,30.11,WSW,239,0.0,0.0,63,0.00,,SCT,0.00,19.00,VWS V14.01,2013-08-17 00:47:00,
2013-08-16 19:52:00,73.7,60.3,30.11,WSW,239,0.0,0.0,63,0.00,,SCT,0.00,16.00,VWS V14.01,2013-08-17 00:52:00,
2013-08-16 19:57:00,73.4,59.6,30.11,WSW,240,0.0,0.0,62,0.00,,SCT,0.00,12.00,VWS V14.01,2013-08-17 00:57:00,
2013-08-16 20:02:00,73.2,59.9,30.11,WSW,240,0.0,0.0,63,0.00,,SCT,0.00,7.00,VWS V14.01,2013-08-17 01:02:00,
2013-08-16 20:07:00,72.9,60.0,30.11,WSW,240,0.0,0.0,64,0.00,,SCT,0.00,5.00,VWS V14.01,2013-08-17 01:07:00,
2013-08-16 20:12:00,72.4,60.0,30.11,WSW,240,0.0,0.0,65,0.00,,SCT,0.00,0.00,VWS V14.01,2013-08-17 01:12:00,
2013-08-16 20:17:00,71.9,60.4,30.11,WSW,240,0.0,0.0,67,0.00,,SCT,0.00,0.00,VWS V14.01,2013-08-17 01:17:00,
2013-08-16 20:22:00,71.3,59.8,30.11,WSW,240,0.0,0.0,67,0.00,,SCT,0.00,0.00,VWS V14.01,2013-08-17 01:22:00,
2013-08-16 20:27:00,70.8,60.1,30.11,WSW,240,0.0,0.0,69,0.00,,SCT,0.00,0.00,VWS V14.01,2013-08-17 01:27:00,
2013-08-16 20:32:00,70.3,60.1,30.11,WSW,239,0.0,0.0,70,0.00,,SCT,0.00,0.00,VWS V14.01,2013-08-17 01:32:00,
2013-08-16 20:37:00,69.7,59.5,30.11,WSW,240,0.0,0.0,70,0.00,,SCT,0.00,0.00,VWS V14.01,2013-08-17 01:37:00,
2013-08-16 20:42:00,69.3,59.5,30.12,WSW,239,0.0,0.0,71,0.00,,SCT,0.00,0.00,VWS V14.01,2013-08-17 01:42:00,
2013-08-16 20:47:00,68.8,59.4,30.12,WSW,240,0.0,0.0,72,0.00,,SCT,0.00,0.00,VWS V14.01,2013-08-17 01:47:00,
2013-08-16 20:52:00,68.3,58.9,30.12,WSW,239,0.0,0.0,72,0.00,,SCT,0.00,0.00,VWS V14.01,2013-08-17 01:52:00,
2013-08-16 20:57:00,67.9,58.9,30.12,WSW,239,0.0,0.0,73,0.00,,SCT,0.00,0.00,VWS V14.01,2013-08-17 01:57:00,
2013-08-16 21:02:00,67.5,59.3,30.12,WSW,240,0.0,0.0,75,0.00,,SCT,0.00,0.00,VWS V14.01,2013-08-17 02:02:00,
2013-08-16 21:07:00,67.0,58.8,30.12,WSW,239,0.0,0.0,75,0.00,,SCT,0.00,0.00,VWS V14.01,2013-08-17 02:07:00,
2013-08-16 21:12:00,66.6,58.8,30.12,WSW,239,0.0,0.0,76,0.00,,SCT,0.00,0.00,VWS V14.01,2013-08-17 02:12:00,
2013-08-16 21:17:00,66.2,58.8,30.12,WSW,239,0.0,0.0,77,0.00,,SCT,0.00,0.00,VWS V14.01,2013-08-17 02:17:00,
2013-08-16 21:22:00,65.8,59.1,30.13,WSW,239,0.0,0.0,79,0.00,,SCT,0.00,0.00,VWS V14.01,2013-08-17 02:22:00,
2013-08-16 21:27:00,65.4,58.7,30.13,WSW,239,0.0,0.0,79,0.00,,SCT,0.00,0.00,VWS V14.01,2013-08-17 02:27:00,
2013-08-16 21:32:00,65.1,58.4,30.13,WSW,240,0.0,0.0,79,0.00,,SCT,0.00,0.00,VWS V14.01,2013-08-17 02:32:00,
2013-08-16 21:37:00,64.7,58.4,30.13,WSW,239,0.0,0.0,80,0.00,,SCT,0.00,0.00,VWS V14.01,2013-08-17 02:37:00,
2013-08-16 21:42:00,64.4,58.1,30.13,WSW,240,0.0,0.0,80,0.00,,SCT,0.00,0.00,VWS V14.01,2013-08-17 02:42:00,
2013-08-16 21:47:00,64.1,58.5,30.13,WSW,239,0.0,0.0,82,0.00,,SCT,0.00,0.00,VWS V14.01,2013-08-17 02:47:00,
2013-08-16 21:52:00,63.7,58.1,30.13,WSW,240,0.0,0.0,82,0.00,,SCT,0.00,0.00,VWS V14.01,2013-08-17 02:52:00,
2013-08-16 21:57:00,63.3,58.1,30.13,WSW,239,0.0,0.0,83,0.00,,SCT,0.00,0.00,VWS V14.01,2013-08-17 02:57:00,
2013-08-16 22:02:00,63.0,57.8,30.13,WSW,240,0.0,0.0,83,0.00,,SCT,0.00,0.00,VWS V14.01,2013-08-17 03:02:00,
2013-08-16 22:07:00,62.7,57.8,30.13,WSW,240,0.0,0.0,84,0.00,,SCT,0.00,0.00,VWS V14.01,2013-08-17 03:07:00,
2013-08-16 22:12:00,62.5,57.6,30.13,WSW,239,0.0,0.0,84,0.00,,SCT,0.00,0.00,VWS V14.01,2013-08-17 03:12:00,
2013-08-16 22:17:00,62.2,57.3,30.13,WSW,239,0.0,0.0,84,0.00,,SCT,0.00,0.00,VWS V14.01,2013-08-17 03:17:00,
2013-08-16 22:22:00,62.0,57.5,30.13,WSW,239,0.0,0.0,85,0.00,,SCT,0.00,0.00,VWS V14.01,2013-08-17 03:22:00,
2013-08-16 22:27:00,61.6,57.0,30.13,WSW,240,0.0,0.0,85,0.00,,SCT,0.00,0.00,VWS V14.01,2013-08-17 03:27:00,
2013-08-16 22:32:00,61.4,56.9,30.14,WSW,239,0.0,0.0,85,0.00,,SCT,0.00,0.00,VWS V14.01,2013-08-17 03:32:00,
2013-08-16 22:37:00,61.2,57.0,30.14,WSW,239,0.0,0.0,86,0.00,,SCT,0.00,0.00,VWS V14.01,2013-08-17 03:37:00,
2013-08-16 22:42:00,61.0,56.8,30.14,WSW,240,0.0,0.0,86,0.00,,SCT,0.00,0.00,VWS V14.01,2013-08-17 03:42:00,
2013-08-16 22:47:00,60.8,56.6,30.13,WSW,239,0.0,0.0,86,0.00,,SCT,0.00,0.00,VWS V14.01,2013-08-17 03:47:00,
2013-08-16 22:53:00,60.7,56.5,30.14,WSW,240,0.0,0.0,86,0.00,,SCT,0.00,0.00,VWS V14.01,2013-08-17 03:53:00,
2013-08-16 22:58:00,60.5,56.3,30.14,WSW,240,0.0,0.0,86,0.00,,SCT,0.00,0.00,VWS V14.01,2013-08-17 03:58:00,
2013-08-16 23:01:00,60.4,56.2,30.14,WSW,239,0.0,0.0,86,0.00,,SCT,0.00,0.00,VWS V14.01,2013-08-17 04:01:00,
2013-08-16 23:02:00,60.4,56.2,30.14,WSW,240,0.0,0.0,86,0.00,,SCT,0.00,0.00,VWS V14.01,2013-08-17 04:02:00,
2013-08-16 23:03:00,60.3,56.4,30.14,WSW,239,0.0,0.0,87,0.00,,SCT,0.00,0.00,VWS V14.01,2013-08-17 04:03:00,
2013-08-16 23:08:00,60.2,56.3,30.14,WSW,239,0.0,0.0,87,0.00,,SCT,0.00,0.00,VWS V14.01,2013-08-17 04:08:00,
2013-08-16 23:13:00,60.1,56.2,30.14,WSW,239,0.0,0.0,87,0.00,,SCT,0.00,0.00,VWS V14.01,2013-08-17 04:13:00,
2013-08-16 23:18:00,60.0,56.4,30.14,WSW,239,0.0,0.0,88,0.00,,SCT,0.00,0.00,VWS V14.01,2013-08-17 04:18:00,
2013-08-16 23:23:00,59.9,56.3,30.14,WSW,240,0.0,0.0,88,0.00,,SCT,0.00,0.00,VWS V14.01,2013-08-17 04:23:00,
2013-08-16 23:28:00,59.8,56.2,30.14,WSW,239,0.0,0.0,88,0.00,,SCT,0.00,0.00,VWS V14.01,2013-08-17 04:28:00,
2013-08-16 23:33:00,59.6,56.0,30.14,WSW,239,0.0,0.0,88,0.00,,SCT,0.00,0.00,VWS V14.01,2013-08-17 04:33:00,
2013-08-16 23:38:00,59.4,55.8,30.14,WSW,239,0.0,0.0,88,0.00,,SCT,0.00,0.00,VWS V14.01,2013-08-17 04:38:00,
2013-08-16 23:43:00,59.3,55.8,30.14,WSW,239,0.0,0.0,88,0.00,,SCT,0.00,0.00,VWS V14.01,2013-08-17 04:43:00,
2013-08-16 23:48:00,59.1,55.5,30.14,WSW,240,0.0,0.0,88,0.00,,SCT,0.00,0.00,VWS V14.01,2013-08-17 04:48:00,
2013-08-16 23:53:00,59.0,55.5,30.14,WSW,239,0.0,0.0,88,0.00,,SCT,0.00,0.00,VWS V14.01,2013-08-17 04:53:00,
2013-08-16 23:58:00,59.0,55.5,30.14,WSW,239,0.0,0.0,88,0.00,,SCT,0.00,0.00,VWS V14.01,2013-08-17 04:58:00,